Find Resurs-P No. 4

NORAD ID: 59371 Int'l Des: 2024-061 Owner: TSSKBP Country: RU operational
LEOCIRCULARRETROGRADESSO

当前视图

正在加载3D地球...

About Resurs-P No. 4

Resurs-P No. 4 (NORAD 59371) is a satellite launched Mar 31, 2024 by TSSKBP of RU. It operates in LEO, CIRCULAR, RETROGRADE, SSO orbit with a mass of 6000.00 kg.

即将过境

Passes for default location (London). Set your location on the main map for personalized predictions.

高度历史

Loading altitude history...

两行轨道根数

1 59371U 24061A 26195.16991817 .00001741 00000-0 58297-4 0 9991
2 59371 97.2758 142.6027 0003230 91.1465 269.0147 15.32276553127896
Epoch: Jul 14, 2026 • Age: 10 hours

当前状态

高度 494.9 km
远地点 / 近地点 N/A
速度 7.61 km/s
星下点 -62.10°S, 158.61°E
发射日期 Mar 31, 2024
运行时间 2.2 years
类型 other

技术详情

分类 Payload
质量 6000.00 kg
干质量 5800.00 kg
总质量 6000.00 kg
长度 7.90 m
直径 2.70 m
跨度 13.00 m
形状 Cy+2 pan
制造商 TSSKBP
平台类型 Resurs P
阶段状态 In Orbit
所有者/国家 TSSKBP/RU

Most Searched